Location: Navalespino
(40.5894°N, 4.2660°W)
Time: 09:39:32
(UTC+00:00)

Terra - Pass Details

Date: 18 April 2024
Orbit: 691 x 696 km, 98.0° (Epoch: 28 May)

Event Time Altitude Azimuth Distance (km) Brightness Sun altitude
Exits shadow 22:19:43 33° 285° (WNW) 1,165 3.2 -31.6°
Drops below altitude 10° 22:23:15 10° 329° (NNW) 2,163 5.2 -31.9°
Sets 22:25:41 0° 338° (NNW) 3,084 6.2 -32.2°
